Flag for U.S.A. Weather past 2 weeks in Missoula, Montana, U.S.A.

Now
19 °F

Clear.


Feels Like: 19 °F
Forecast: 20 / 36 °F
Wind: No wind

Location: Missoula International Airport

Current Time: Jan 30, 2015 at 7:05:44 AM

Latest Report: Jan 30, 2015 at 5:53 AM


Visibility: 10 mi

Pressure: 30.48 "Hg

Humidity: 92%

Dew point: 17 °F

Location of MissoulaLocation

Historic Weather in Missoula — Graph

°F

Missoula temperature yesterday

Maximum temperature yesterday: 35 °F (at 2:53 PM)
Minimum temperature yesterday: 19 °F (at 7:53 AM)
Average temperature yesterday: 26 °F

Past Weeks' High & Low Weather Summary

 TemperatureHumidityPressure
High47 °F (Jan 25, 4:53 PM)100% (Jan 18, 5:00 AM)30.64 "Hg (Jan 18, 5:00 AM)
Low10 °F (Jan 15, 5:53 AM)51% (Jan 18, 3:53 PM)29.88 "Hg (Jan 18, 8:03 AM)
Average29 °F85%30.33 "Hg
* Reported Jan 15 5:53 AM — Jan 30 5:53 AM, Missoula, Weather by CustomWeather, © 2014

Note: Actual official high and low records may vary slightly from our data, if they occured in-between our weather recording intervals... More about our weather records

Advertising

Missoula weather history for previous 24 hours

 ConditionsComfort  
Time TempWeatherWind HumidityBarometerVisibility
5:53 AM
Jan 30
19 °FClear.No wind92%30.48 "Hg10 mi
4:53 AM16 °FIce fog.3 mph92%30.48 "Hg1 mi
4:00 AM20 °FIce fog.No wind92%30.36 "Hg5 mi
2:53 AM19 °FClear.No wind88%30.48 "Hg10 mi
1:53 AM21 °FClear.No wind88%30.47 "Hg9 mi
12:53 AM23 °FClear.No wind88%30.48 "Hg10 mi
11:53 PM
Jan 29
21 °FClear.3 mph92%30.50 "Hg9 mi
10:53 PM25 °FClear.3 mph88%30.48 "Hg10 mi
9:53 PM24 °FClear.No wind88%30.51 "Hg10 mi
8:53 PM26 °FClear.No wind84%30.50 "Hg10 mi
7:53 PM27 °FClear.No wind85%30.49 "Hg10 mi
6:53 PM29 °FClear.No wind82%30.47 "Hg10 mi
5:53 PM32 °FClear.3 mph75%30.46 "Hg10 mi
4:53 PM35 °FSunny.No wind67%30.45 "Hg10 mi
3:53 PM35 °FSunny.No wind67%30.45 "Hg10 mi
2:53 PM35 °FSunny.3 mph70%30.45 "Hg10 mi
1:53 PM32 °FSunny.3 mph82%30.47 "Hg10 mi
12:53 PM31 °FSunny.No wind82%30.52 "Hg10 mi
11:53 AM26 °FSunny.No wind100%30.55 "Hg10 mi
10:53 AM26 °FSunny.No wind96%30.58 "Hg10 mi
9:53 AM20 °FIce fog.No wind100%30.59 "Hg3 mi
8:56 AM19 °FIce fog.3 mph92%30.47 "Hg0 mi
7:53 AM19 °FIce fog.No wind92%30.58 "Hg6 mi
Weather by CustomWeather, © 2014

See weather overviewHow to use our weather pages